Home > Weather > Ashgabat > Past weeks

Flag for Turkmenistan Weather for the Past 2 Weeks in Ashgabat, Turkmenistan

Now
37 °F

Overcast.


Feels Like: 31 °F
Forecast: 21 / 40 °F
Wind: 9 mph from East

Location: Ashgabat

Current Time: Feb 12, 2016 at 7:28:41 PM

Latest Report: Feb 12, 2016 at 7:00 PM


Visibility: N/A

Pressure: 30.33 "Hg

Humidity: 70%

Dew point: 28 °F

Location of AshgabatLocation

Historic Weather in Ashgabat — Graph

°F

Ashgabat Temperature Yesterday

Maximum temperature yesterday: 36 °F (at 4:00 PM)
Minimum temperature yesterday: 25 °F (at 5:00 AM)
Average temperature yesterday: 30 °F

High & Low Weather Summary for the Past Weeks

 TemperatureHumidityPressure
High73 °F (Feb 7, 4:00 PM)100% (Jan 28, 9:30 PM)30.60 "Hg (Jan 28, 9:30 PM)
Low25 °F (Feb 11, 5:00 AM)17% (Feb 7, 4:00 PM)29.77 "Hg (Feb 6, 3:00 PM)
Average41 °F77%30.24 "Hg
* Reported Jan 28 6:00 PM — Feb 12 6:00 PM, Ashgabat, Weather by CustomWeather, © 2016

Note: Actual official high and low records may vary slightly from our data, if they occured in-between our weather recording intervals... More about our weather records

Advertising

Ashgabat Weather History for the Previous 24 Hours

 ConditionsComfort  
Time TempWeatherWind HumidityBarometerVisibility
6:00 PM
Fri, Feb 12
37 °FOvercast.9 mph70%30.30 "HgN/A
5:00 PM39 °FOvercast.10 mph70%30.30 "HgN/A
4:00 PM39 °FMore clouds than sun.12 mph70%30.27 "HgN/A
3:00 PM37 °FPartly sunny.5 mph70%30.27 "Hg6 mi
2:00 PM37 °FPartly sunny.6 mph70%30.27 "Hg6 mi
1:00 PM36 °FPartly sunny.7 mph81%30.30 "HgN/A
12:00 PM36 °FPartly sunny.5 mph75%30.30 "Hg6 mi
11:00 AM32 °FPartly sunny.3 mph87%30.30 "Hg5 mi
10:30 AM32 °FPartly sunny.6 mph87%30.30 "Hg6 mi
10:00 AM32 °FPartly sunny.8 mph87%30.30 "HgN/A
9:30 AM30 °FPartly sunny.7 mph93%30.30 "Hg6 mi
9:00 AM30 °FScattered clouds.5 mph93%30.30 "Hg6 mi
8:00 AM30 °FPassing clouds.7 mph93%30.27 "Hg6 mi
7:00 AM30 °FPassing clouds.7 mph93%30.27 "HgN/A
6:00 AM32 °FPassing clouds.8 mph87%30.27 "HgN/A
5:00 AM32 °FOvercast.8 mph80%30.27 "HgN/A
4:00 AM32 °FOvercast.9 mph87%30.27 "HgN/A
3:00 AM32 °FOvercast.8 mph87%30.27 "HgN/A
2:00 AM32 °FOvercast.9 mph80%30.27 "HgN/A
1:00 AM32 °FOvercast.9 mph87%30.30 "Hg6 mi
12:00 AM32 °FOvercast.10 mph80%30.30 "Hg4 mi
11:00 PM
Thu, Feb 11
34 °FOvercast.10 mph81%30.30 "Hg4 mi
10:00 PM32 °FOvercast.6 mph80%30.33 "HgN/A
9:00 PM32 °FOvercast.6 mph75%30.33 "HgN/A
8:00 PM34 °FOvercast.9 mph75%30.33 "HgN/A
7:00 PM34 °FOvercast.10 mph81%30.30 "HgN/A
Weather by CustomWeather, © 2016

See weather overviewHow to use our weather pages